Regional Weather Roundup
Issued by NWS Green Bay, WI

Home | Current Version | Previous Version | Graphics & Text | Print | Product List | Glossary Off
Versions: 1 2 3 4 5 6 7 8 9 10 11 12 13 14 15 16 17 18 19 20 21 22 23 24 25 26 27 28 29 30 31 32 33 34 35 36 37 38 39 40 41 42 43 44 45 46 47 48 49 50

000
ASUS43 KGRB 251859
RWRGRB

NORTH-CENTRAL AND NORTHEAST WISCONSIN REGIONAL WEATHER ROUNDUP
NATIONAL WEATHER SERVICE GREEN BAY WI
100 PM CST THU DEC 25 2014

WIZ005-009-010>012-018-019-252000-
NORTH CENTRAL WISCONSIN

CITY           SKY/WX    TMP DP  RH WIND       PRES   REMARKS
IRONWOOD       CLOUDY    32  28  86 W10       29.68R
MANITOWISH WTR NOT AVBL
ARBOR VITAE    NOT AVBL
EAGLE RIVER    NOT AVBL
LAND O LAKES   NOT AVBL
RHINELANDER    CLOUDY    30  26  85 SW13G20   29.74R
PHILLIPS       NOT AVBL
ANTIGO         NOT AVBL
TOMAHAWK       NOT AVBL
MERRILL        NOT AVBL
$$

WIZ013-073-252000-
NORTHEAST WISCONSIN

CITY           SKY/WX    TMP DP  RH WIND       PRES   REMARKS
IRON MOUNTAIN  CLOUDY    34  28  79 SW8       29.72R
MARINETTE      CLOUDY    36  28  75 SW13G21   29.78S
$$

WIZ017-030-035>037-045-252000-
CENTRAL WISCONSIN

CITY           SKY/WX    TMP DP  RH WIND       PRES   REMARKS
MEDFORD        NOT AVBL
WAUSAU         CLOUDY    32  27  81 SW13      29.77S
MOSINEE        CLOUDY    30  28  93 SW9G17    29.80R
MARSHFIELD     CLOUDY    33  27  78 SW9       29.78F
WISC RAPIDS    CLOUDY    34  27  75 SW8       29.82S
STEVENS POINT  NOT AVBL
WAUPACA        NOT AVBL
SHAWANO        CLOUDY    35  29  78 SW9       29.81S
CLINTONVILLE   CLOUDY    34  30  86 SW13      29.82R
$$

WIZ038-039-048-051-252000-
FOX VALLEY

CITY           SKY/WX    TMP DP  RH WIND       PRES   REMARKS
NWS GREEN BAY  CLOUDY    35  29  78 SW13      29.83R
APPLETON       PTSUNNY   36  30  80 SW16      29.83S
OSHKOSH        CLOUDY    35  29  78 SW8G18    29.85R
FOND DU LAC    CLOUDY    35  29  78 SW12G20   29.85R
$$

WIZ022-050-052-252000-
EAST CENTRAL WISCONSIN

CITY           SKY/WX    TMP DP  RH WIND       PRES   REMARKS
STURGEON BAY   CLOUDY    34  27  75 SW17G24   29.82R
MANITOWOC      NOT AVBL
SHEBOYGAN      CLOUDY    36  29  75 SW10      29.85S
$$

LMZ563-521-522-541>543-252000-
LAKESHORE

STATION/POSITION TIME  TEMP    WIND        PRES    VSBY  WAVE
                       AIR SEA DIR/SP/G                  HT/PER
                 (UTC) (F)     (DEG/KT/KT) (MB)    (MI)  (FT/S)
SHEBOYGAN LKSHOR 1800   35 37  220/ 17/ 20 1011.7R
KEWAUNEE LKSHORE 1800   35     250/ 12/ 17 1009.3R
ALGOMA MARINA    1800          270/ 14/ 18   N/A
NORTHPORT PIER   1800   35     240/ 10/ 17 1008.1R
SISTER BAY LKSHO 1800          240/ 20/ 26   N/A
CHAMBERS ISLAND  1800   35     190/  7/ 16 1008.8R
MENOMINEE LKSHOR 1800   35     210/ 10/ 16 1009.6R
$$


USA.gov is the U.S. government's official web portal to all federal, state and local government web resources and services.